Regional Weather Roundup
Issued by NWS

Home | Current Version | Previous Version | Graphics & Text | Print | Product List | Glossary On
Versions: 1 2 3 4 5 6 7 8 9 10 11 12 13 14 15 16 17 18 19 20 21 22 23 24 25 26 27 28 29 30 31 32 33 34 35 36 37 38 39 40 41 42 43 44 45 46 47 48 49 50
000
ASUS43 KBIS 240310
RWRND

NORTH DAKOTA REGIONAL WEATHER ROUNDUP
NATIONAL WEATHER SERVICE BISMARCK ND
1000 PM CDT TUE MAY 23 2017

NOTE: "FAIR" INDICATES FEW OR NO CLOUDS BELOW 12,000 FEET WITH NO
SIGNIFICANT WEATHER AND/OR OBSTRUCTIONS TO VISIBILITY.


NDZ001>003-009>011-017-240400-
NORTHWEST NORTH DAKOTA

CITY           SKY/WX    TMP DP  RH WIND       PRES   REMARKS
WILLISTON      FAIR      63  35  35 SE10      29.91F
MINOT          FAIR      59  35  40 SE7       29.93F
MINOT AFB      CLEAR     55  35  47 SE7       29.92F
$$

NDZ018>021-031>035-040>046-240400-
SOUTHWEST NORTH DAKOTA

CITY           SKY/WX    TMP DP  RH WIND       PRES   REMARKS
BISMARCK       FAIR      49  38  65 E8        29.98F
DICKINSON      FAIR      51  32  48 E8        29.94F
GARRISON         N/A     53  37  54 SE3       29.95F
HETTINGER ARPT CLOUDY    50  33  52 CALM      29.99F
$$

NDZ004>008-012>016-024-026-027-054-240400-
NORTHEAST NORTH DAKOTA

CITY           SKY/WX    TMP DP  RH WIND       PRES   REMARKS
GRAND FORKS    PTCLDY    49  43  80 SW6       29.95S
GRND FRKS AFB  CLEAR     49  42  75 CALM      29.95F
DEVILS LAKE    FAIR      55  41  59 S6        29.96F
$$

NDZ022-023-025-028>030-036>039-047>053-240400-
SOUTHEAST NORTH DAKOTA

CITY           SKY/WX    TMP DP  RH WIND       PRES   REMARKS
FARGO          PTCLDY    53  44  71 N9        29.94S
JAMESTOWN      FAIR      47  40  76 NE3       29.96F
$$





USA.gov is the U.S. government's official web portal to all federal, state and local government web resources and services.